Preview of NWS' New Version of Forecast
This preview is not operational and should not be used for support decisions.

Regional Weather Roundup (RWR)

Issued by National Weather Service (NWS)

                            
000
ASUS43 KDTX 211310
RWRMI 
MICHIGAN HOURLY REGIONAL WEATHER ROUNDUP
NATIONAL WEATHER SERVICE DETROIT/PONTIAC MI
800 AM EST THU FEB 21 2019

NOTE: "FAIR" INDICATES FEW OR NO CLOUDS BELOW 12,000 FEET WITH NO
SIGNIFICANT WEATHER AND/OR OBSTRUCTION TO VISIBILITY.

MIZ047>049-052>055-059>063-066>070-074>076-081>083-211400-
SOUTHEAST LOWER MICHIGAN
  
CITY           SKY/WX    TMP DP  RH WIND       PRES   REMARKS
ADRIAN         FAIR      32  23  69 W12G20    30.03R WCI  23          
ALMA           MOCLDY    30  19  64 W15G30    29.97R WCI  19          
ANN ARBOR      FAIR      31  22  69 SW14G22   30.00R WCI  21          
BAD AXE        CLOUDY    33  24  70 W16G22    29.90R WCI  23          
CARO           CLOUDY    33  27  77 SW14G23   29.92R WCI  23          
DETROIT CITY   CLOUDY    35  23  61 W13G22    29.99R WCI  26          
DETROIT        CLOUDY    33  21  61 SW18G31   30.01R WCI  22          
FLINT          CLOUDY    33  21  61 W15G26    29.97R WCI  23          
GROSSE ILE     CLOUDY    34  28  80 W7        30.01R WCI  28          
HILLSDALE      FAIR      31  22  69 W13G18    30.01R WCI  21          
HOWELL         CLOUDY    33  24  68 W20G25    29.98R WCI  21          

CITY           SKY/WX    TMP DP  RH WIND       PRES   REMARKS
JACKSON        FAIR      30  22  72 SW9       30.00R WCI  22          
LAMBERTVILLE   FAIR      33  27  76 W9        30.03R WCI  26          
LANSING        FAIR      30  21  69 W26G33    29.99R WCI  16          
LAPEER         CLOUDY    33  21  60 W15G23    29.95R WCI  23          
MASON          CLOUDY    32  23  69 W10G23    29.99R WCI  24          
MONROE         CLOUDY    34  29  83 W10G18    30.01R WCI  26          
MT. CLEMENS    CLOUDY    35  27  71 W18       29.96R WCI  25          
PONTIAC        CLOUDY    33  24  69 W13       29.95R WCI  24          
PORT HOPE        N/A     33  22  63 W13G20    29.88R WCI  24          
PORT HURON     CLOUDY    34  23  64 SW9G16    29.97R WCI  26          
TRI CITIES     CLOUDY    32  23  69 W25G33    29.94R WCI  19          
MIDLAND        CLOUDY    32  22  66 SW17G25   29.94R WCI  21          
TROY           CLOUDY    35  24  65 W12G18    29.99R WCI  27          
SAGINAW HB     CLOUDY    34  23  64 SW23G31   29.94R WCI  22          
$$
MIZ043>046-050>051-056>058-064>065-071>073-077>080-211400-
SOUTHWEST LOWER MICHIGAN
  
CITY           SKY/WX    TMP DP  RH WIND       PRES   REMARKS
BATTLE CREEK   FAIR      29  21  72 W13       30.02R WCI  19          
BENTON HARBOR  FAIR      30  20  66 W17       30.08R WCI  18          
BIG RAPIDS     CLOUDY    28  20  71 W14G25    29.93R WCI  17          
COLDWATER      FAIR      31  25  78 W14       30.04R WCI  21          
FREMONT        MOCLDY    28  19  69 W9G21     29.98R WCI  19          
HOLLAND        FAIR      29  20  69 W21G26    30.03R WCI  16          
GRAND RAPIDS   MOCLDY    29  20  69 W21       29.99R WCI  16          
IONIA          MOCLDY    30  19  64 W24G33    29.98R WCI  16          
KALAMAZOO      FAIR      29  20  69 W15G21    30.04R WCI  18          
LUDINGTON      CLOUDY    28  19  70 W16       29.97R WCI  16          
MARSHALL       FAIR      30  21  69 W13       30.02R WCI  20          
MOUNT PLEASANT CLOUDY    31  19  60 SW20G30   29.94R WCI  18          
MUSKEGON       FAIR      28  17  63 W17       30.01R WCI  16          
SOUTH HAVEN    FAIR      31  22  69 W15G21    30.06R WCI  20          
$$
MIZ016>042-211400-
NORTHERN LOWER MICHIGAN
  
CITY           SKY/WX    TMP DP  RH WIND       PRES   REMARKS
ALPENA         CLOUDY    33  21  61 W16G28    29.82R WCI  23          
BEAVER ISLAND  LGT SNOW  29  26  88 W21G29    29.83R WCI  15          
BELLAIRE       CLOUDY    32  21  65 SW8       29.88R WCI  24          
CADILLAC       CLOUDY    28  19  71 W20G29    29.87R WCI  14          
CHARLEVOIX     CLOUDY    31  24  75 SW16G24   29.88R WCI  20          
FRANKFORT      CLOUDY    29  21  71 W20G25    29.93R WCI  16          
GAYLORD        LGT SNOW  26  20  77 W20G35    29.80R WCI  12          
GRAYLING       LGTSLEET  29  24  82 W9        29.84R WCI  20          
HARBOR SPRINGS LGT SNOW  30  27  90 W14G26    29.82R WCI  19          
HOUGHTON LAKE  CLOUDY    29  20  69 W21G35    29.86R HAZE    WCI  16  
MANISTEE       MOCLDY    27  20  75 W16G23    29.95R WCI  15          
OSCODA         CLOUDY    31  24  73 W14       29.85R WCI  21          
PELLSTON       LGT SNOW  30  24  78 W17G31    29.82R WCI  18          
ROGERS CITY    FLURRIES  31  26  81 W10       29.82R WCI  22          
TRAVERSE CITY  CLOUDY    31  21  66 W10       29.88R WCI  22          
$$
MIZ007>008-015-211400-
EASTERN UPPER MICHIGAN
  
CITY           SKY/WX    TMP DP  RH WIND       PRES   REMARKS
KINROSS        CLOUDY    25  22  88 W12       29.78R WCI  14          
MACKINAC ISLAN LGT SNOW  28  27  99 W15G25    29.80R WCI  16          
NEWBERRY       CLOUDY    23  21  91 MISG      29.79R                  
S. S. MARIE    FAIR      25  20  81 W10       29.76R WCI  15          
MUNISING         N/A     24  19  81 SW6       29.81R WCI  17          
$$
MIZ004>006-011>014-085-211400-
CENTRAL UPPER MICHIGAN
  
CITY           SKY/WX    TMP DP  RH WIND       PRES   REMARKS
MANISTIQUE     FLURRIES  26  21  80 W6        29.82R WCI  20          
ESCANABA       FLURRIES  24  22  91 SW7       29.86R WCI  16          
MENOMINEE      FAIR      21  16  81 W8        29.92R WCI  11          
SAWYER-GWINN   FLURRIES  23  19  86 W6        29.77R WCI  16          
$$
MIZ001>003-009>011-084-211400-
WESTERN UPPER MICHIGAN
  
CITY           SKY/WX    TMP DP  RH WIND       PRES   REMARKS
IRON MOUNTAIN  LGT SNOW  25  20  81 SW8       29.81R WCI  16          
HOUGHTON       CLOUDY    24  20  84 NW10      29.78R WCI  14          
COPPER HARBOR    N/A     24  21  88 N15       29.79R WCI  11          
IRONWOOD       LGT SNOW  20  18  92 W12       29.85R FOG     WCI   8  
$$

ABBREVIATIONS USED IN REMARKS
   TC - TEMPERATURE IN CELSIUS
  WCI - WIND CHILL INDEX
   HX - HEAT INDEX
  VSB - VISIBILITY